This is the latest recevied weather packets stored in our database for station/object KB4RFE. If no packets are shown the sender has not sent any weather packets the latest 10 day(s).
| Time | Temp. | Humidity | Pressure | Rain* | Wind** | Luminosity | Snow |
|---|---|---|---|---|---|---|---|
| 1777837212 | 20° C | 54% | 1021 hPa | 0 mm | - | 761 W/m² | - |
| 1777836908 | 20° C | 51% | 1020.9 hPa | 0 mm | - | 779 W/m² | - |
| 1777836604 | 19.44° C | 54% | 1021.1 hPa | 0 mm | - | 788 W/m² | - |
| 1777836300 | 19.44° C | 53% | 1021 hPa | 0 mm | - | 682 W/m² | - |
| 1777835995 | 19.44° C | 57% | 1021.4 hPa | 0 mm | - | 826 W/m² | - |
| 1777835693 | 20° C | 57% | 1021.4 hPa | 0 mm | - | 825 W/m² | - |
| 1777835389 | 19.44° C | 55% | 1021.4 hPa | 0 mm | - | 845 W/m² | - |
| 1777835087 | 19.44° C | 59% | 1021.5 hPa | 0 mm | - | 840 W/m² | - |
| 1777834784 | 19.44° C | 57% | 1021.8 hPa | 0 mm | - | 680 W/m² | - |
| 1777834480 | 19.44° C | 56% | 1021.7 hPa | 0 mm | - | 929 W/m² | - |
| 1777834180 | 19.44° C | 56% | 1021.7 hPa | 0 mm | - | 346 W/m² | - |
| 1777833876 | 19.44° C | 58% | 1021.6 hPa | 0 mm | - | 294 W/m² | - |
| 1777833573 | 18.89° C | 59% | 1021.8 hPa | 0 mm | - | 396 W/m² | - |
| 1777833269 | 19.44° C | 54% | 1021.9 hPa | 0 mm | - | 686 W/m² | - |
| 1777832966 | 18.89° C | 55% | 1021.9 hPa | 0 mm | - | 985 W/m² | - |
| 1777832665 | 19.44° C | 54% | 1021.9 hPa | 0 mm | - | 954 W/m² | - |
| 1777832362 | 20° C | 59% | 1022 hPa | 0 mm | - | 969 W/m² | - |
| 1777832059 | 20° C | 55% | 1022.1 hPa | 0 mm | - | 334 W/m² | - |
| 1777831755 | 20° C | 55% | 1022.2 hPa | 0 mm | - | 985 W/m² | - |
| 1777831454 | 20° C | 61% | 1022 hPa | 0 mm | - | 1008 W/m² | - |
| 1777831150 | 20.56° C | 53% | 1022.1 hPa | 0 mm | - | 1010 W/m² | - |
| 1777830849 | 20.56° C | 53% | 1022 hPa | 0 mm | - | 969 W/m² | - |
| 1777830544 | 20° C | 56% | 1022.1 hPa | 0 mm | - | 1070 W/m² | - |
| 1777830243 | 20° C | 56% | 1021.9 hPa | 0 mm | - | 1043 W/m² | - |
| 1777829942 | 20° C | 53% | 1021.9 hPa | 0 mm | - | 1055 W/m² | - |
* Rain latest hour (hover to see other rain measurements)
** Current wind speed in m/s (hover to see current wind gust speed)